FW6727 Weather Reports


time (UTC)temp
C
wind
direction
speed
KPH
gust
KPH
rain 1hr
cm
rain 24hr
cm
rain mn
cm
humidity
%
barometer
mb
20260504081540 6 0 0.0 0.0 0.00 0.00 0.00 87 1017.5
20260504044536 10 278 0.0 3.2 0.00 0.00 0.00 78 1017.7
20260504043039 10 0 0.0 1.6 0.00 0.00 0.00 76 1017.5
20260504041537 11 279 0.0 3.2 0.00 0.00 0.00 75 1017.8
20260504040040 11 0 0.0 3.2 0.00 0.00 0.00 73 1017.7
20260504034538 12 278 0.0 3.2 0.00 0.00 0.00 72 1017.7
20260504033039 12 0 0.0 4.8 0.00 0.00 0.00 69 1017.6
20260504031541 13 286 0.0 9.7 0.00 0.00 0.00 64 1017.6
20260504030042 14 283 4.8 12.9 0.00 0.00 0.00 57 1017.5
20260504024537 15 273 3.2 14.5 0.00 0.03 0.00 57 1017.5
20260504023043 13 278 6.4 14.5 0.00 0.03 0.00 60 1017.2
20260504021539 12 203 0.0 8.0 0.00 0.03 0.00 67 1017.2
20260504020037 12 0 0.0 3.2 0.00 0.03 0.00 69 1017.1
20260504014552 13 181 0.0 3.2 0.00 0.03 0.00 67 1016.9
20260504013041 13 0 0.0 1.6 0.00 0.03 0.00 65 1016.7
20260504011539 14 0 1.6 3.2 0.00 0.03 0.00 63 1016.6
20260504010046 15 0 0.0 3.2 0.00 0.03 0.00 60 1016.5
20260504004538 16 181 0.0 4.8 0.00 0.03 0.00 58 1016.4
20260504003040 17 183 0.0 3.2 0.00 0.03 0.00 53 1016.3
20260504001551 18 184 1.6 4.8 0.00 0.03 0.00 51 1016.0
20260504000045 18 165 0.0 6.4 0.00 0.03 0.00 49 1015.9
20260503234539 19 0 1.6 4.8 0.00 0.03 0.00 46 1015.7
20260503233040 19 169 1.6 8.0 0.00 0.03 0.00 44 1015.7
20260503231542 20 232 3.2 11.3 0.00 0.03 0.00 42 1015.8
20260503230045 20 257 3.2 16.1 0.00 0.03 0.00 40 1015.9
20260503224544 20 153 1.6 12.9 0.00 0.20 0.00 39 1015.8
20260503223039 21 265 6.4 14.5 0.00 0.20 0.00 39 1016.0
20260503221547 21 167 3.2 17.7 0.00 0.20 0.00 40 1015.9
20260503220037 21 210 4.8 16.1 0.00 0.20 0.00 40 1016.1
20260503214542 21 224 6.4 17.7 0.00 0.20 0.00 39 1016.2
20260503213038 21 226 4.8 14.5 0.00 0.20 0.00 38 1016.3
20260503211538 21 181 3.2 17.7 0.00 0.20 0.00 42 1016.4
20260503210048 20 178 1.6 19.3 0.00 0.20 0.00 38 1016.5
20260503204546 21 257 8.0 22.5 0.00 0.20 0.00 40 1016.7
20260503203039 20 258 8.0 25.7 0.00 0.20 0.00 41 1016.9
20260503201538 20 121 1.6 17.7 0.00 0.20 0.00 39 1017.3
20260503200044 20 210 4.8 14.5 0.00 0.20 0.00 41 1017.7
20260503194537 20 253 4.8 22.5 0.00 0.20 0.00 41 1018.0
20260503193043 20 193 4.8 17.7 0.00 0.20 0.00 42 1018.5
20260503191542 20 245 6.4 17.7 0.00 0.20 0.00 44 1018.8
20260503190045 19 146 8.0 17.7 0.00 0.20 0.00 43 1018.8
20260503184537 19 311 1.6 16.1 0.00 0.20 0.00 46 1019.2
20260503183043 18 160 3.2 11.3 0.00 0.20 0.00 42 1019.3
20260503181538 18 207 4.8 19.3 0.00 0.20 0.00 44 1019.5
20260503180037 18 277 9.7 17.7 0.00 0.20 0.00 43 1019.5
20260503174537 18 122 4.8 14.5 0.00 0.20 0.00 43 1019.7
20260503173124 18 259 6.4 16.1 0.00 0.20 0.00 45 1019.8
20260503171545 17 271 3.2 17.7 0.00 0.20 0.00 44 1019.9